Location: Poughquag
(41.6090°N, 73.6820°W)
Time: 07:34:29
(UTC-04:00)

Transit 2A - Visible Passes

Search period start: 29 May 2020 00:00
Search period end: 08 June 2020 00:00
Orbit: 593 x 965 km, 66.7° (Epoch: 28 May)

Date Brightness Start Highest point End Pass type
(mag) Time Alt. Az. Time Alt. Az. Time Alt. Az.
29 May 8.1 01:11:30 10° WNW 01:15:18 19° W 01:15:18 19° W visible
29 May 8.6 21:11:08 10° N 21:14:19 14° NE 21:17:34 10° ENE visible
29 May 6.8 22:52:45 10° NNW 22:58:53 57° NE 23:01:29 34° ESE visible
30 May 7.6 00:36:40 10° NW 00:41:49 27° WSW 00:41:58 27° WSW visible
30 May 7.2 22:18:44 10° NNW 22:24:37 42° NE 22:28:12 23° ESE visible
31 May 7.2 00:02:07 10° NW 00:07:50 38° WSW 00:08:41 36° SW visible
31 May 7.6 21:44:46 10° NNW 21:50:17 32° NE 21:54:57 14° ESE visible
31 May 6.8 23:27:44 10° NW 23:33:49 53° WSW 23:35:26 43° SSW visible
01 Jun 7.9 21:10:53 10° N 21:15:53 25° NE 21:21:00 10° E visible
01 Jun 6.5 22:53:28 10° NNW 22:59:44 74° WSW 23:02:15 39° SSE visible
02 Jun 8.6 00:39:56 10° W 00:42:00 12° W 00:42:44 11° WSW visible
02 Jun 6.4 22:19:17 10° NNW 22:25:35 82° ENE 22:29:05 29° SE visible
03 Jun 8.2 00:04:10 10° WNW 00:08:09 18° WSW 00:09:34 16° WSW visible
03 Jun 6.7 21:45:11 10° NNW 21:51:23 61° ENE 21:55:59 19° SE visible
03 Jun 7.9 23:29:14 10° NW 23:34:14 25° WSW 23:36:28 21° SW visible
04 Jun 7.1 21:11:09 10° NNW 21:17:07 45° NE 21:22:54 11° SE visible
04 Jun 7.5 22:54:38 10° NW 23:00:17 35° WSW 23:03:24 23° SSW visible
05 Jun 7.1 22:20:13 10° NW 22:26:16 50° WSW 22:30:23 21° S visible
06 Jun 6.7 21:45:56 10° NW 21:52:12 69° WSW 21:57:25 16° SSE visible
06 Jun 8.8 23:33:10 10° W 23:34:24 11° W 23:35:38 10° WSW visible
07 Jun 6.5 21:11:44 10° NNW 21:18:04 87° ENE 21:24:27 10° SSE visible
07 Jun 8.6 22:56:51 10° WNW 23:00:34 16° WSW 23:04:16 10° SW visible
